QPF
0.05 0.03 0.04 0.06 0.06 0.06 0.07 0.06 0.05 0.06 0.09 0.10 0.09 0.06 0.04 0.04 0.05 0.07 0.07 0.07 0.08 0.08 0.08 0.08 0.07 0.08 0.09 0.11 0.09 0.06 0.05 0.04 0.06 0.06 0.06 0.07 0.08 0.08 0.08 0.08 0.10 0.08 0.06
0.03 0.03 0.03 0.05 0.04 0.05 0.06 0.06 0.06 0.07 0.08 0.09 0.09 0.07 0.05 0.04 0.05 0.06 0.06 0.07 0.07 0.06 0.06 0.08 0.08 0.07 0.08 0.08 0.06 0.06 0.05 0.06 0.06 0.07 0.07 0.08 0.09 0.09 0.09 0.09 0.12 0.09 0.05
0.05 0.04 0.04 0.04 0.04 0.04 0.04 0.06 0.07 0.07 0.08 0.07 0.07 0.07 0.06 0.06 0.04 0.05 0.06 0.06 0.07 0.06 0.06 0.07 0.07 0.06 0.06 0.06 0.07 0.06 0.04 0.04 0.06 0.07 0.11 0.12 0.07 0.07 0.08 0.09 0.09 0.08 0.05
0.04 0.04 0.04 0.03 0.04 0.03 0.05 0.06 0.06 0.08 0.08 0.08 0.08 0.08 0.07 0.06 0.05 0.05 0.06 0.06 0.06 0.07 0.07 0.07 0.05 0.04 0.04 0.05 0.06 0.06 0.05 0.04 0.06 0.07 0.12 0.14 0.09 0.05 0.09 0.09 0.07 0.06 0.04
0.02 0.03 0.02 0.02 0.04 0.04 0.05 0.05 0.06 0.07 0.06 0.07 0.07 0.05 0.03 0.03 0.03 0.04 0.04 0.04 0.05 0.06 0.05 0.05 0.06 0.06 0.07 0.08 0.08 0.05 0.04 0.04 0.07 0.08 0.11 0.16 0.14 0.07 0.08 0.08 0.07 0.06 0.04
0.01 0.00 0.01 0.01 0.02 0.03 0.04 0.04 0.05 0.05 0.04 0.04 0.04 0.03 0.02 0.02 0.03 0.03 0.02 0.03 0.05 0.05 0.05 0.04 0.05 0.12 0.14 0.14 0.12 0.06 0.04 0.04 0.09 0.09 0.10 0.15 0.15 0.07 0.06 0.06 0.08 0.09 0.06
0.00 0.00 0.00 0.01 0.02 0.02 0.03 0.04 0.04 0.03 0.03 0.04 0.04 0.02 0.01 0.02 0.03 0.05 0.03 0.04 0.05 0.04 0.05 0.05 0.05 0.10 0.14 0.15 0.12 0.07 0.06 0.07 0.09 0.10 0.10 0.13 0.10 0.05 0.05 0.06 0.10 0.11 0.09
0.00 0.00 0.00 0.01 0.01 0.02 0.03 0.04 0.04 0.04 0.03 0.03 0.03 0.02 0.02 0.02 0.03 0.04 0.03 0.03 0.03 0.03 0.03 0.04 0.03 0.05 0.06 0.08 0.09 0.05 0.03 0.04 0.07 0.08 0.10 0.10 0.07 0.05 0.04 0.06 0.10 0.13 0.11
0.00 0.00 0.01 0.01 0.01 0.01 0.02 0.03 0.03 0.03 0.03 0.03 0.04 0.02 0.02 0.03 0.04 0.04 0.03 0.04 0.03 0.03 0.02 0.03 0.04 0.06 0.05 0.05 0.05 0.03 0.02 0.03 0.07 0.09 0.09 0.09 0.07 0.05 0.04 0.05 0.07 0.12 0.16
0.00 0.00 0.01 0.01 0.02 0.02 0.03 0.03 0.02 0.02 0.02 0.02 0.02 0.01 0.02 0.02 0.04 0.04 0.03 0.04 0.05 0.03 0.03 0.03 0.03 0.04 0.03 0.04 0.04 0.03 0.02 0.05 0.08 0.11 0.11 0.07 0.06 0.05 0.05 0.06 0.06 0.10 0.14
0.00 0.00 0.00 0.01 0.01 0.02 0.03 0.02 0.01 0.01 0.01 0.01 0.01 0.00 0.02 0.04 0.05 0.04 0.04 0.05 0.04 0.03 0.04 0.04 0.03 0.02 0.03 0.03 0.03 0.03 0.04 0.05 0.06 0.09 0.08 0.06 0.05 0.05 0.06 0.07 0.07 0.10 0.12
0.00 0.00 0.00 0.00 0.00 0.01 0.02 0.02 0.02 0.01 0.02 0.01 0.01 0.01 0.02 0.03 0.05 0.03 0.02 0.04 0.04 0.03 0.03 0.03 0.04 0.03 0.03 0.02 0.02 0.03 0.05 0.05 0.08 0.08 0.06 0.06 0.07 0.08 0.08 0.07 0.08 0.10 0.11
0.00 0.00 0.00 0.01 0.00 0.00 0.01 0.02 0.02 0.02 0.02 0.01 0.00 0.00 0.02 0.03 0.03 0.03 0.04 0.04 0.05 0.05 0.05 0.04 0.04 0.04 0.04 0.03 0.03 0.03 0.03 0.03 0.08 0.09 0.06 0.08 0.09 0.08 0.08 0.09 0.10 0.10 0.11
0.00 0.00 0.00 0.00 0.00 0.01 0.01 0.02 0.01 0.02 0.01 0.01 0.00 0.00 0.01 0.02 0.03 0.02 0.03 0.06 0.07 0.08 0.08 0.05 0.04 0.03 0.02 0.02 0.02 0.03 0.03 0.03 0.05 0.08 0.08 0.07 0.10 0.09 0.08 0.09 0.10 0.13 0.14
0.00 0.00 0.00 0.00 0.00 0.01 0.02 0.01 0.01 0.01 0.01 0.01 0.01 0.00 0.00 0.00 0.01 0.02 0.02 0.03 0.05 0.05 0.05 0.03 0.04 0.03 0.01 0.01 0.01 0.01 0.01 0.01 0.02 0.04 0.08 0.08 0.07 0.09 0.07 0.07 0.12 0.21 0.17
0.00 0.00 0.00 0.00 0.00 0.01 0.02 0.01 0.01 0.01 0.01 0.01 0.01 0.00 0.00 0.00 0.01 0.01 0.02 0.02 0.04 0.03 0.03 0.02 0.02 0.02 0.02 0.01 0.01 0.01 0.01 0.01 0.01 0.02 0.05 0.08 0.08 0.07 0.07 0.08 0.13 0.17 0.15
0.00 0.00 0.00 0.00 0.00 0.02 0.02 0.00 0.01 0.00 0.00 0.01 0.01 0.00 0.00 0.00 0.00 0.01 0.01 0.01 0.02 0.02 0.01 0.01 0.01 0.02 0.02 0.02 0.02 0.02 0.02 0.01 0.01 0.01 0.04 0.06 0.07 0.08 0.07 0.07 0.09 0.12 0.13
0.00 0.00 0.00 0.00 0.01 0.02 0.01 0.01 0.01 0.00 0.00 0.01 0.01 0.01 0.00 0.00 0.00 0.01 0.01 0.01 0.01 0.01 0.01 0.01 0.02 0.03 0.03 0.03 0.04 0.03 0.02 0.01 0.00 0.01 0.02 0.03 0.05 0.05 0.06 0.06 0.06 0.08 0.12
0.00 0.00 0.00 0.01 0.01 0.01 0.01 0.00 0.01 0.00 0.01 0.00 0.01 0.01 0.01 0.01 0.01 0.01 0.01 0.01 0.01 0.01 0.01 0.01 0.03 0.04 0.03 0.03 0.03 0.02 0.02 0.02 0.02 0.01 0.02 0.02 0.03 0.04 0.05 0.06 0.05 0.06 0.10
0.00 0.00 0.01 0.02 0.02 0.02 0.01 0.00 0.00 0.00 0.01 0.01 0.01 0.01 0.01 0.01 0.01 0.02 0.01 0.01 0.01 0.01 0.01 0.01 0.02 0.04 0.04 0.03 0.02 0.02 0.02 0.02 0.03 0.02 0.02 0.03 0.04 0.04 0.04 0.06 0.08 0.08 0.09
0.00 0.00 0.01 0.01 0.00 0.01 0.01 0.00 0.00 0.01 0.01 0.01 0.01 0.00 0.00 0.01 0.01 0.01 0.01 0.01 0.01 0.01 0.01 0.01 0.01 0.02 0.03 0.02 0.03 0.03 0.02 0.02 0.02 0.03 0.04 0.04 0.05 0.05 0.05 0.06 0.07 0.06 0.07
0.00 0.00 0.00 0.00 0.00 0.01 0.01 0.01 0.00 0.00 0.00 0.01 0.01 0.01 0.00 0.00 0.01 0.01 0.01 0.01 0.01 0.01 0.01 0.01 0.01 0.02 0.02 0.03 0.05 0.05 0.03 0.03 0.02 0.02 0.04 0.04 0.05 0.06 0.06 0.08 0.07 0.06 0.06
0.00 0.00 0.00 0.01 0.01 0.01 0.01 0.01 0.00 0.00 0.00 0.00 0.00 0.01 0.01 0.00 0.01 0.00 0.00 0.01 0.01 0.03 0.04 0.02 0.02 0.03 0.03 0.03 0.04 0.05 0.06 0.06 0.04 0.03 0.03 0.03 0.05 0.06 0.07 0.09 0.08 0.06 0.05
0.01 0.01 0.01 0.01 0.01 0.01 0.01 0.01 0.00 0.01 0.00 0.00 0.00 0.01 0.01 0.01 0.01 0.01 0.01 0.01 0.02 0.02 0.03 0.02 0.02 0.03 0.04 0.04 0.04 0.04 0.03 0.05 0.05 0.05 0.05 0.04 0.04 0.05 0.07 0.06 0.05 0.04 0.03
0.01 0.00 0.00 0.00 0.01 0.02 0.01 0.01 0.01 0.01 0.01 0.01 0.01 0.02 0.02 0.02 0.02 0.01 0.01 0.01 0.02 0.02 0.03 0.03 0.03 0.03 0.04 0.05 0.05 0.04 0.02 0.03 0.04 0.05 0.06 0.06 0.05 0.06 0.05 0.05 0.04 0.04 0.03
0.01 0.01 0.00 0.00 0.00 0.02 0.02 0.03 0.02 0.02 0.01 0.02 0.02 0.02 0.02 0.02 0.02 0.01 0.01 0.01 0.01 0.01 0.02 0.02 0.03 0.03 0.03 0.04 0.04 0.03 0.03 0.04 0.04 0.04 0.06 0.05 0.05 0.05 0.04 0.04 0.03 0.03 0.03
MSLP
1010.98 1010.80 1010.65 1010.58 1010.59 1010.66 1010.76 1010.88 1010.99 1011.07 1011.13 1011.21 1011.31 1011.45 1011.65 1011.91 1012.20 1012.51 1012.82 1013.12 1013.40 1013.67 1013.91 1014.15 1014.36 1014.53 1014.66 1014.73 1014.74 1014.68 1014.59 1014.48 1014.38 1014.33 1014.33 1014.38 1014.48 1014.60 1014.72 1014.80 1014.84 1014.82 1014.76
1010.95 1010.81 1010.72 1010.69 1010.74 1010.85 1010.98 1011.11 1011.22 1011.29 1011.35 1011.41 1011.51 1011.67 1011.88 1012.16 1012.47 1012.80 1013.13 1013.44 1013.73 1014.00 1014.25 1014.48 1014.70 1014.88 1015.01 1015.08 1015.08 1015.01 1014.90 1014.77 1014.65 1014.57 1014.56 1014.61 1014.71 1014.84 1014.98 1015.08 1015.13 1015.12 1015.08
1010.90 1010.83 1010.80 1010.84 1010.96 1011.12 1011.29 1011.44 1011.55 1011.61 1011.65 1011.69 1011.76 1011.90 1012.10 1012.37 1012.67 1013.00 1013.32 1013.62 1013.89 1014.15 1014.40 1014.64 1014.87 1015.07 1015.22 1015.31 1015.32 1015.26 1015.15 1015.01 1014.88 1014.80 1014.77 1014.82 1014.92 1015.06 1015.21 1015.32 1015.40 1015.42 1015.39
1010.83 1010.83 1010.89 1011.02 1011.23 1011.46 1011.68 1011.85 1011.96 1012.01 1012.01 1012.01 1012.05 1012.15 1012.31 1012.54 1012.81 1013.10 1013.39 1013.66 1013.91 1014.16 1014.40 1014.65 1014.90 1015.12 1015.31 1015.43 1015.48 1015.46 1015.36 1015.24 1015.11 1015.03 1015.00 1015.04 1015.13 1015.27 1015.42 1015.55 1015.64 1015.68 1015.69
1010.74 1010.81 1010.97 1011.21 1011.50 1011.81 1012.09 1012.29 1012.40 1012.43 1012.41 1012.37 1012.36 1012.41 1012.53 1012.71 1012.93 1013.17 1013.41 1013.64 1013.87 1014.09 1014.33 1014.59 1014.86 1015.12 1015.35 1015.53 1015.62 1015.64 1015.58 1015.48 1015.37 1015.29 1015.25 1015.28 1015.36 1015.48 1015.62 1015.74 1015.85 1015.91 1015.95
1010.63 1010.78 1011.03 1011.37 1011.75 1012.14 1012.47 1012.70 1012.82 1012.84 1012.79 1012.72 1012.67 1012.69 1012.76 1012.90 1013.07 1013.27 1013.46 1013.64 1013.83 1014.04 1014.27 1014.54 1014.84 1015.14 1015.42 1015.64 1015.79 1015.85 1015.84 1015.76 1015.67 1015.59 1015.55 1015.55 1015.61 1015.70 1015.81 1015.92 1016.02 1016.10 1016.16
1010.53 1010.74 1011.07 1011.48 1011.94 1012.39 1012.76 1013.01 1013.14 1013.16 1013.10 1013.02 1012.97 1012.96 1013.02 1013.13 1013.27 1013.43 1013.58 1013.72 1013.88 1014.06 1014.29 1014.57 1014.88 1015.22 1015.54 1015.81 1016.01 1016.11 1016.14 1016.10 1016.02 1015.94 1015.89 1015.87 1015.89 1015.94 1016.02 1016.09 1016.17 1016.24 1016.32
1010.45 1010.70 1011.08 1011.55 1012.06 1012.53 1012.93 1013.19 1013.33 1013.35 1013.31 1013.25 1013.21 1013.23 1013.29 1013.40 1013.54 1013.67 1013.79 1013.91 1014.04 1014.20 1014.42 1014.69 1015.02 1015.38 1015.74 1016.04 1016.28 1016.42 1016.47 1016.46 1016.40 1016.32 1016.26 1016.22 1016.20 1016.21 1016.24 1016.28 1016.32 1016.37 1016.43
1010.40 1010.67 1011.07 1011.57 1012.09 1012.57 1012.96 1013.22 1013.36 1013.40 1013.39 1013.37 1013.38 1013.44 1013.55 1013.69 1013.84 1013.97 1014.08 1014.18 1014.28 1014.42 1014.62 1014.89 1015.23 1015.60 1015.97 1016.30 1016.56 1016.73 1016.81 1016.82 1016.78 1016.71 1016.64 1016.58 1016.54 1016.51 1016.49 1016.48 1016.48 1016.50 1016.55
1010.38 1010.66 1011.07 1011.56 1012.06 1012.52 1012.88 1013.13 1013.26 1013.32 1013.34 1013.38 1013.45 1013.58 1013.76 1013.95 1014.12 1014.27 1014.38 1014.46 1014.55 1014.67 1014.85 1015.11 1015.44 1015.81 1016.19 1016.53 1016.81 1017.00 1017.11 1017.14 1017.12 1017.07 1017.00 1016.94 1016.89 1016.84 1016.78 1016.73 1016.69 1016.67 1016.69
1010.39 1010.67 1011.07 1011.53 1012.00 1012.41 1012.73 1012.94 1013.06 1013.13 1013.19 1013.28 1013.43 1013.63 1013.88 1014.12 1014.34 1014.51 1014.63 1014.70 1014.78 1014.88 1015.05 1015.29 1015.61 1015.98 1016.35 1016.70 1016.99 1017.20 1017.33 1017.39 1017.40 1017.37 1017.33 1017.29 1017.24 1017.18 1017.11 1017.04 1016.97 1016.92 1016.90
1010.40 1010.69 1011.08 1011.51 1011.92 1012.28 1012.54 1012.71 1012.81 1012.88 1012.97 1013.11 1013.32 1013.59 1013.89 1014.19 1014.45 1014.64 1014.77 1014.86 1014.93 1015.02 1015.18 1015.41 1015.72 1016.08 1016.45 1016.80 1017.10 1017.33 1017.48 1017.56 1017.60 1017.61 1017.61 1017.59 1017.57 1017.53 1017.48 1017.40 1017.32 1017.24 1017.20
1010.38 1010.68 1011.06 1011.46 1011.83 1012.13 1012.35 1012.48 1012.55 1012.62 1012.73 1012.90 1013.15 1013.46 1013.81 1014.15 1014.44 1014.66 1014.81 1014.91 1014.99 1015.09 1015.25 1015.48 1015.78 1016.13 1016.50 1016.86 1017.16 1017.40 1017.57 1017.68 1017.75 1017.80 1017.84 1017.87 1017.88 1017.88 1017.85 1017.80 1017.72 1017.64 1017.58
1010.28 1010.61 1010.99 1011.37 1011.71 1011.98 1012.16 1012.26 1012.33 1012.39 1012.50 1012.68 1012.95 1013.28 1013.65 1014.02 1014.34 1014.59 1014.77 1014.89 1015.00 1015.12 1015.30 1015.54 1015.84 1016.19 1016.56 1016.91 1017.21 1017.45 1017.63 1017.76 1017.86 1017.95 1018.02 1018.10 1018.16 1018.21 1018.22 1018.21 1018.16 1018.09 1018.03
1010.08 1010.43 1010.82 1011.20 1011.54 1011.80 1011.98 1012.08 1012.14 1012.20 1012.31 1012.49 1012.76 1013.09 1013.47 1013.84 1014.18 1014.46 1014.68 1014.86 1015.01 1015.17 1015.38 1015.64 1015.95 1016.30 1016.66 1017.00 1017.30 1017.54 1017.72 1017.86 1017.98 1018.08 1018.18 1018.29 1018.40 1018.49 1018.56 1018.59 1018.58 1018.55 1018.50
1009.74 1010.11 1010.52 1010.93 1011.29 1011.58 1011.78 1011.91 1012.00 1012.08 1012.19 1012.36 1012.61 1012.93 1013.29 1013.67 1014.02 1014.34 1014.61 1014.85 1015.07 1015.29 1015.54 1015.83 1016.16 1016.51 1016.86 1017.19 1017.47 1017.70 1017.87 1018.00 1018.11 1018.22 1018.33 1018.46 1018.59 1018.72 1018.83 1018.91 1018.95 1018.96 1018.95
1009.28 1009.66 1010.09 1010.53 1010.94 1011.29 1011.56 1011.75 1011.89 1012.01 1012.13 1012.30 1012.53 1012.82 1013.16 1013.53 1013.91 1014.26 1014.59 1014.90 1015.19 1015.48 1015.79 1016.11 1016.46 1016.81 1017.15 1017.46 1017.72 1017.92 1018.07 1018.19 1018.28 1018.37 1018.47 1018.59 1018.73 1018.88 1019.02 1019.14 1019.23 1019.28 1019.31
1008.73 1009.11 1009.56 1010.03 1010.51 1010.93 1011.29 1011.58 1011.80 1011.97 1012.13 1012.30 1012.51 1012.78 1013.09 1013.45 1013.84 1014.23 1014.62 1015.00 1015.37 1015.73 1016.08 1016.44 1016.80 1017.15 1017.48 1017.76 1018.00 1018.18 1018.31 1018.40 1018.47 1018.54 1018.61 1018.71 1018.83 1018.97 1019.12 1019.26 1019.39 1019.49 1019.55
1008.13 1008.50 1008.95 1009.47 1010.00 1010.52 1010.99 1011.38 1011.70 1011.95 1012.15 1012.34 1012.54 1012.78 1013.07 1013.42 1013.81 1014.23 1014.67 1015.12 1015.55 1015.97 1016.38 1016.76 1017.13 1017.47 1017.78 1018.05 1018.27 1018.43 1018.55 1018.62 1018.67 1018.71 1018.75 1018.81 1018.90 1019.01 1019.15 1019.29 1019.44 1019.57 1019.67
1007.54 1007.88 1008.33 1008.86 1009.45 1010.05 1010.63 1011.14 1011.57 1011.91 1012.17 1012.38 1012.58 1012.80 1013.07 1013.40 1013.79 1014.23 1014.71 1015.20 1015.69 1016.15 1016.59 1016.99 1017.36 1017.70 1018.00 1018.26 1018.47 1018.63 1018.75 1018.82 1018.85 1018.87 1018.88 1018.90 1018.94 1019.02 1019.12 1019.24 1019.39 1019.53 1019.66
1006.98 1007.28 1007.70 1008.24 1008.87 1009.55 1010.22 1010.84 1011.38 1011.81 1012.14 1012.39 1012.60 1012.81 1013.06 1013.37 1013.75 1014.20 1014.69 1015.21 1015.72 1016.22 1016.67 1017.08 1017.45 1017.78 1018.08 1018.33 1018.55 1018.73 1018.87 1018.96 1019.00 1019.01 1019.00 1018.98 1018.98 1019.00 1019.05 1019.14 1019.26 1019.40 1019.54
1006.44 1006.70 1007.09 1007.61 1008.26 1008.98 1009.73 1010.46 1011.09 1011.62 1012.02 1012.32 1012.55 1012.76 1012.99 1013.28 1013.65 1014.09 1014.59 1015.12 1015.65 1016.15 1016.61 1017.02 1017.38 1017.71 1018.00 1018.27 1018.52 1018.73 1018.91 1019.04 1019.11 1019.14 1019.12 1019.07 1019.02 1018.98 1018.97 1019.01 1019.08 1019.19 1019.33
1005.88 1006.10 1006.45 1006.95 1007.59 1008.34 1009.15 1009.95 1010.68 1011.29 1011.77 1012.12 1012.39 1012.61 1012.84 1013.12 1013.48 1013.91 1014.40 1014.93 1015.46 1015.96 1016.42 1016.83 1017.19 1017.51 1017.81 1018.10 1018.38 1018.64 1018.87 1019.06 1019.18 1019.23 1019.22 1019.16 1019.07 1018.98 1018.90 1018.87 1018.88 1018.95 1019.06
1005.25 1005.44 1005.75 1006.21 1006.84 1007.60 1008.44 1009.30 1010.11 1010.80 1011.36 1011.78 1012.09 1012.34 1012.59 1012.87 1013.22 1013.65 1014.14 1014.67 1015.20 1015.70 1016.16 1016.56 1016.92 1017.24 1017.55 1017.87 1018.18 1018.49 1018.78 1019.02 1019.20 1019.29 1019.30 1019.24 1019.12 1018.98 1018.85 1018.74 1018.69 1018.70 1018.76
1004.49 1004.67 1004.94 1005.37 1005.98 1006.74 1007.61 1008.51 1009.38 1010.15 1010.78 1011.27 1011.64 1011.94 1012.22 1012.52 1012.89 1013.32 1013.83 1014.36 1014.90 1015.41 1015.87 1016.28 1016.64 1016.96 1017.28 1017.61 1017.95 1018.30 1018.64 1018.93 1019.16 1019.31 1019.35 1019.30 1019.17 1018.99 1018.80 1018.63 1018.51 1018.45 1018.46
1003.60 1003.77 1004.02 1004.43 1005.02 1005.78 1006.66 1007.60 1008.52 1009.35 1010.06 1010.62 1011.05 1011.40 1011.73 1012.07 1012.47 1012.94 1013.47 1014.03 1014.59 1015.12 1015.60 1016.02 1016.38 1016.71 1017.03 1017.36 1017.71 1018.08 1018.45 1018.78 1019.06 1019.25 1019.33 1019.30 1019.18 1018.99 1018.77 1018.55 1018.36 1018.23 1018.18
Thickness
5763 5764 5763 5764 5765 5765 5766 5767 5767 5767 5767 5767 5768 5768 5769 5769 5770 5770 5770 5770 5770 5771 5771 5770 5771 5771 5771 5771 5771 5771 5772 5772 5772 5772 5772 5772 5771 5771 5771 5771 5771 5771 5771
5764 5762 5761 5762 5762 5763 5764 5764 5764 5764 5764 5764 5765 5765 5765 5766 5766 5767 5767 5767 5768 5768 5768 5768 5768 5768 5768 5768 5769 5769 5769 5769 5770 5769 5769 5769 5769 5769 5769 5769 5769 5769 5769
5764 5761 5760 5759 5760 5760 5761 5761 5761 5761 5761 5761 5762 5762 5762 5762 5763 5764 5764 5764 5765 5765 5764 5765 5765 5765 5765 5765 5765 5766 5767 5767 5767 5767 5767 5767 5766 5766 5766 5767 5767 5767 5767
5763 5759 5757 5757 5757 5758 5758 5758 5758 5758 5758 5758 5758 5758 5759 5759 5759 5760 5761 5761 5762 5762 5762 5762 5762 5762 5762 5762 5762 5763 5764 5764 5765 5765 5765 5764 5764 5764 5764 5764 5764 5764 5764
5760 5757 5754 5754 5754 5754 5755 5755 5755 5755 5755 5755 5755 5755 5755 5756 5756 5757 5757 5758 5758 5758 5758 5759 5759 5760 5761 5760 5760 5760 5761 5762 5762 5762 5762 5761 5761 5761 5761 5761 5762 5762 5762
5757 5754 5752 5752 5752 5752 5752 5752 5752 5752 5752 5752 5752 5752 5753 5753 5753 5753 5754 5754 5755 5755 5755 5755 5756 5758 5759 5758 5757 5758 5759 5759 5759 5759 5759 5758 5758 5758 5758 5758 5759 5759 5759
5755 5752 5750 5749 5749 5749 5749 5749 5749 5749 5748 5749 5749 5749 5749 5750 5750 5750 5750 5751 5751 5751 5751 5752 5753 5754 5755 5754 5754 5755 5756 5756 5756 5756 5756 5755 5755 5755 5755 5755 5756 5756 5756
5753 5751 5748 5747 5746 5746 5746 5745 5745 5745 5745 5745 5746 5746 5746 5747 5747 5747 5747 5747 5747 5748 5748 5748 5749 5750 5750 5750 5750 5751 5752 5753 5753 5754 5752 5752 5752 5752 5752 5752 5752 5752 5752
5753 5750 5747 5745 5744 5743 5743 5742 5742 5742 5742 5742 5742 5743 5743 5743 5743 5743 5743 5743 5744 5744 5744 5745 5745 5746 5746 5746 5747 5748 5748 5749 5749 5750 5749 5748 5748 5749 5749 5749 5749 5749 5749
5751 5749 5747 5745 5743 5741 5740 5740 5740 5739 5739 5740 5740 5740 5740 5740 5740 5740 5740 5740 5740 5740 5741 5741 5742 5742 5742 5743 5743 5744 5745 5745 5746 5746 5745 5745 5745 5746 5745 5745 5745 5746 5746
5746 5747 5746 5745 5743 5741 5739 5738 5737 5737 5737 5737 5738 5738 5738 5738 5737 5737 5737 5737 5737 5737 5737 5737 5738 5738 5739 5739 5740 5741 5741 5742 5742 5741 5741 5741 5741 5742 5742 5742 5742 5742 5742
5741 5744 5745 5744 5742 5740 5739 5737 5736 5736 5735 5735 5736 5736 5735 5735 5734 5734 5733 5733 5733 5733 5733 5734 5734 5734 5735 5736 5736 5737 5737 5738 5738 5737 5736 5737 5737 5738 5738 5738 5738 5739 5739
5742 5742 5742 5742 5741 5739 5736 5735 5734 5734 5734 5734 5734 5733 5732 5732 5731 5730 5729 5729 5729 5729 5729 5730 5730 5731 5732 5732 5732 5733 5733 5733 5733 5732 5732 5732 5733 5734 5734 5734 5734 5735 5736
5740 5739 5740 5740 5738 5736 5734 5733 5732 5731 5731 5730 5730 5730 5729 5728 5727 5726 5726 5725 5725 5725 5726 5726 5726 5727 5727 5728 5728 5728 5728 5728 5727 5727 5726 5727 5728 5728 5729 5729 5730 5730 5731
5738 5737 5738 5737 5735 5733 5731 5730 5729 5728 5728 5727 5726 5727 5726 5725 5724 5723 5722 5721 5721 5721 5721 5721 5721 5721 5722 5722 5722 5722 5722 5722 5722 5721 5721 5722 5722 5723 5724 5725 5725 5726 5725
5738 5736 5736 5735 5733 5731 5729 5727 5726 5725 5724 5723 5723 5723 5722 5721 5720 5719 5717 5717 5716 5716 5716 5716 5716 5715 5715 5716 5716 5716 5716 5717 5717 5716 5716 5716 5716 5717 5718 5719 5720 5721 5721
5738 5736 5734 5733 5731 5728 5726 5724 5723 5722 5721 5719 5719 5719 5718 5717 5716 5715 5713 5712 5711 5711 5711 5711 5710 5710 5709 5709 5709 5710 5710 5711 5711 5711 5711 5711 5710 5711 5712 5713 5714 5714 5715
5738 5735 5732 5731 5728 5725 5723 5721 5719 5718 5716 5715 5714 5714 5714 5713 5712 5710 5708 5707 5706 5706 5705 5704 5703 5702 5701 5701 5701 5703 5704 5704 5705 5706 5706 5706 5706 5705 5706 5706 5707 5708 5709
5737 5733 5730 5728 5725 5722 5720 5718 5715 5714 5712 5711 5710 5709 5708 5708 5706 5705 5703 5702 5702 5700 5699 5698 5696 5695 5693 5694 5694 5696 5697 5698 5699 5700 5700 5700 5701 5701 5700 5700 5701 5702 5703
5736 5733 5728 5725 5722 5719 5717 5714 5711 5709 5708 5707 5705 5704 5703 5702 5701 5700 5699 5698 5697 5694 5692 5691 5690 5689 5688 5688 5690 5690 5691 5692 5693 5693 5694 5695 5695 5695 5695 5695 5696 5696 5696
5732 5729 5726 5721 5719 5716 5712 5708 5705 5702 5702 5701 5700 5699 5698 5697 5696 5695 5694 5692 5691 5688 5686 5685 5684 5682 5681 5683 5681 5680 5683 5686 5686 5687 5688 5688 5689 5689 5690 5690 5690 5690 5690
5728 5726 5724 5720 5717 5713 5710 5707 5704 5701 5699 5697 5696 5695 5694 5693 5692 5691 5689 5687 5685 5683 5681 5679 5678 5675 5675 5676 5674 5671 5669 5672 5676 5681 5681 5681 5682 5683 5683 5684 5685 5685 5685
5726 5724 5722 5718 5715 5711 5708 5705 5702 5698 5695 5692 5691 5690 5690 5689 5687 5686 5685 5683 5681 5678 5674 5674 5673 5670 5667 5669 5670 5667 5662 5660 5664 5670 5673 5674 5675 5675 5676 5677 5678 5678 5679
5724 5722 5720 5716 5713 5709 5706 5701 5696 5691 5688 5688 5687 5686 5686 5685 5683 5682 5680 5679 5676 5674 5671 5669 5668 5666 5664 5662 5664 5665 5665 5663 5658 5657 5662 5666 5668 5668 5669 5670 5670 5671 5672
5722 5720 5717 5714 5710 5707 5704 5700 5695 5691 5689 5687 5686 5683 5682 5681 5680 5678 5676 5675 5672 5670 5667 5665 5663 5662 5660 5658 5657 5658 5658 5659 5659 5654 5651 5654 5658 5660 5662 5663 5664 5664 5664
5719 5716 5713 5710 5706 5704 5701 5698 5694 5690 5687 5684 5681 5679 5678 5677 5676 5675 5673 5671 5668 5666 5664 5662 5660 5658 5656 5655 5654 5653 5652 5650 5650 5649 5646 5646 5648 5651 5655 5657 5657 5658 5657